TimeCDT,TemperatureF,Dew PointF,Humidity,Sea Level PressureIn,VisibilityMPH,Wind Direction,Wind SpeedMPH,Gust SpeedMPH,PrecipitationIn,Events,Conditions,WindDirDegrees,DateUTC
12:29 AM,71.6,71.6,100,29.98,10.0,Calm,Calm,-,N/A,,Partly Cloudy,0,2013-07-11 05:29:00
12:53 AM,72.0,71.1,97,29.99,10.0,Calm,Calm,-,N/A,,Partly Cloudy,0,2013-07-11 05:53:00
1:53 AM,72.0,71.1,97,30.01,10.0,Calm,Calm,-,N/A,,Partly Cloudy,0,2013-07-11 06:53:00
2:53 AM,72.0,71.1,97,30.01,10.0,Calm,Calm,-,N/A,,Overcast,0,2013-07-11 07:53:00
3:53 AM,72.0,71.1,97,29.99,10.0,Calm,Calm,-,N/A,,Clear,0,2013-07-11 08:53:00
4:53 AM,73.0,71.1,93,29.98,10.0,Calm,Calm,-,N/A,,Clear,0,2013-07-11 09:53:00
5:53 AM,72.0,71.1,97,29.99,10.0,Calm,Calm,-,N/A,,Clear,0,2013-07-11 10:53:00
6:53 AM,73.0,72.0,96,29.99,10.0,Calm,Calm,-,N/A,,Scattered Clouds,0,2013-07-11 11:53:00
7:53 AM,75.9,73.0,91,30.00,10.0,South,3.5,-,N/A,,Overcast,170,2013-07-11 12:53:00
8:53 AM,79.0,73.9,84,29.98,10.0,South,4.6,-,N/A,,Scattered Clouds,190,2013-07-11 13:53:00
9:53 AM,81.0,75.0,82,29.98,10.0,Variable,4.6,-,N/A,,Scattered Clouds,0,2013-07-11 14:53:00
10:09 AM,80.6,73.4,79,29.98,10.0,South,8.1,-,N/A,,Mostly Cloudy,190,2013-07-11 15:09:00
10:32 AM,82.4,73.4,74,29.98,10.0,SSW,6.9,-,N/A,,Mostly Cloudy,200,2013-07-11 15:32:00
10:40 AM,82.4,73.4,74,29.98,10.0,SSW,8.1,-,N/A,Thunderstorm,Mostly Cloudy,200,2013-07-11 15:40:00
10:53 AM,82.9,75.0,77,29.98,10.0,South,5.8,-,N/A,Thunderstorm,Thunderstorm,190,2013-07-11 15:53:00
11:45 AM,82.4,71.6,70,29.98,10.0,NNW,8.1,-,N/A,,Scattered Clouds,330,2013-07-11 16:45:00
11:53 AM,80.1,72.0,76,29.98,10.0,NW,5.8,-,N/A,,Partly Cloudy,310,2013-07-11 16:53:00
12:40 PM,82.4,75.2,79,29.98,10.0,WSW,8.1,-,0.00,Rain-Thunderstorm,Light Thunderstorms and Rain,240,2013-07-11 17:40:00
12:53 PM,80.1,73.0,79,29.98,10.0,WNW,15.0,20.7,0.00,Rain-Thunderstorm,Light Thunderstorms and Rain,290,2013-07-11 17:53:00
1:04 PM,78.8,73.4,83,29.98,10.0,West,11.5,-,0.00,Rain,Light Rain,270,2013-07-11 18:04:00
1:53 PM,75.9,73.0,91,29.96,10.0,WSW,6.9,-,0.00,Rain,Light Rain,240,2013-07-11 18:53:00
2:53 PM,75.9,73.9,94,29.94,10.0,WSW,6.9,-,N/A,Rain,Light Rain,250,2013-07-11 19:53:00
3:01 PM,75.2,73.4,94,29.94,10.0,SW,6.9,-,N/A,Rain,Light Rain,230,2013-07-11 20:01:00
3:53 PM,78.1,73.9,87,29.93,10.0,WSW,5.8,-,N/A,,Scattered Clouds,240,2013-07-11 20:53:00
4:53 PM,78.1,73.9,87,29.91,10.0,SW,5.8,-,N/A,,Partly Cloudy,230,2013-07-11 21:53:00
5:20 PM,78.8,73.4,83,29.91,10.0,WSW,4.6,-,N/A,,Mostly Cloudy,250,2013-07-11 22:20:00
5:27 PM,78.8,73.4,83,29.90,10.0,Variable,3.5,-,N/A,,Mostly Cloudy,0,2013-07-11 22:27:00
5:36 PM,78.8,73.4,83,29.91,10.0,WSW,4.6,-,N/A,,Mostly Cloudy,240,2013-07-11 22:36:00
5:53 PM,79.0,73.0,82,29.90,10.0,WSW,4.6,-,N/A,,Scattered Clouds,250,2013-07-11 22:53:00
6:53 PM,79.0,73.0,82,29.89,10.0,SW,6.9,-,N/A,,Clear,220,2013-07-11 23:53:00
7:53 PM,77.0,73.9,90,29.89,10.0,South,3.5,-,N/A,,Partly Cloudy,180,2013-07-12 00:53:00
8:53 PM,75.9,73.9,94,29.91,10.0,SSW,4.6,-,N/A,,Clear,200,2013-07-12 01:53:00
9:53 PM,75.0,73.0,94,29.92,10.0,SSW,3.5,-,N/A,,Partly Cloudy,200,2013-07-12 02:53:00
10:53 PM,73.9,73.0,97,29.92,10.0,South,5.8,-,N/A,,Scattered Clouds,190,2013-07-12 03:53:00
11:53 PM,73.9,73.0,97,29.92,10.0,Calm,Calm,-,N/A,,Clear,0,2013-07-12 04:53:00